Amateur Radio Satellites - All Passes

Search period start: 25 May 2013 08:05
Search period end: 26 May 2013 08:05
Location: Old Broadwell Mill Observatory, 33.8015°N, 85.8137°W

Satellite Date Start Highest point End Downlink Frequencies (MHz)
Time Altitude Azimuth
SO-50 25 May 08:39:06 08:43:22 31° 305° (NW) 08:47:36 436.795 FM
SO-67 25 May 08:42:32 08:46:01 50° 284° (WNW) 08:49:29 435.3500 MHz FM
ISS 25 May 08:47:19 08:50:40 62° 42° (NE) 08:53:59 145.800 FM
HO-68 25 May 08:55:13 08:59:52 18° 94° (E) 09:04:29 435.675 MHz FM
KITSAT 1 25 May 09:22:53 09:29:45 31° 254° (WSW) 09:36:35 435.175 FM
JAS-2 25 May 09:23:18 09:27:56 21° 91° (E) 09:32:12 435.800 - 435.900 CW/SSB, 435.910 FM
PANSAT 25 May 09:27:29 09:30:09 18° 161° (SSE) 09:32:48 not established
JAS-1B 25 May 09:44:04 09:48:36 24° 294° (WNW) 09:53:00 435.800 - 435.900 CW/SSB
UOSAT-12 25 May 09:44:44 09:48:15 23° 111° (ESE) 09:51:49 437.025 FM, 437.400 FM
Oscar 11 25 May 10:10:29 10:14:40 43° 99° (E) 10:18:49 145.825 FM, Beacon 2401.500 USB
OPAL 25 May 10:33:56 10:38:18 30° 99° (E) 10:42:36 ?
HO-68 25 May 10:40:53 10:48:00 69° 288° (WNW) 10:55:05 435.675 MHz FM
PANSAT 25 May 11:06:31 11:10:04 34° 173° (S) 11:13:37 not established
JAS-2 25 May 11:07:03 11:13:23 49° 290° (WNW) 11:18:59 435.800 - 435.900 CW/SSB, 435.910 FM
UOSAT-12 25 May 11:24:16 11:28:14 30° 305° (NW) 11:32:15 437.025 FM, 437.400 FM
MaSat-1 25 May 11:33:44 11:36:28 38° 252° (WSW) 11:38:52 437.345 MHz
Oscar 11 25 May 11:48:16 11:50:28 14° 293° (WNW) 11:52:41 145.825 FM, Beacon 2401.500 USB
OPAL 25 May 12:13:01 12:17:01 25° 293° (WNW) 12:21:00 ?
Oscar 16 25 May 12:19:22 12:20:52 11° 63° (ENE) 12:22:23 437.025 USB, Beacon 2401.1428
HO-68 25 May 12:33:25 12:34:23 10° 305° (NW) 12:35:21 435.675 MHz FM
AO-27 25 May 12:34:53 12:36:34 12° 63° (ENE) 12:38:15 436.795 MHz FM
ITAMSAT 1 25 May 12:40:09 12:42:25 13° 64° (ENE) 12:44:42 435.822 SSB
PANSAT 25 May 12:46:33 12:50:07 34° 186° (S) 12:53:41 not established
Oscar 19 25 May 13:15:01 13:19:43 36° 71° (ENE) 13:24:26 437.125 CW, 437.150 USB
Uribyol 2 25 May 13:17:47 13:22:22 33° 70° (ENE) 13:27:00 436.500 FM
Saudisat 1A 25 May 13:29:30 13:33:24 27° 54° (NE) 13:37:12 436.775 MHz
Oscar 16 25 May 13:54:21 13:59:32 76° 258° (WSW) 14:04:45 437.025 USB, Beacon 2401.1428
AO-27 25 May 14:10:15 14:15:24 73° 258° (WSW) 14:20:36 436.795 MHz FM
ITAMSAT 1 25 May 14:16:12 14:21:19 65° 258° (WSW) 14:26:29 435.822 SSB
PANSAT 25 May 14:27:18 14:30:03 18° 198° (SSW) 14:32:48 not established
Uosat F 25 May 14:31:06 14:34:55 22° 68° (ENE) 14:38:44 435.120 FM
TMSAT-1 25 May 14:31:23 14:33:12 12° 63° (ENE) 14:35:02 436.925 FM
AO-Echo 25 May 14:34:42 14:39:28 60° 75° (ENE) 14:44:08 ?
RS-15 25 May 14:41:21 14:52:03 38° 106° (ESE) 15:02:22 29.354 - 29.394 USB, Beacon 29.352 USB
Gurwin Techsat 1B 25 May 14:51:52 14:56:26 30° 70° (ENE) 15:01:00 435.225 FM
Oscar 19 25 May 14:55:07 14:59:06 22° 265° (W) 15:03:06 437.125 CW, 437.150 USB
Sapphire 25 May 14:56:12 14:59:06 14° 50° (NE) 15:02:00 437.095 MHz 1200 baud AX-25 AFSK
Uribyol 2 25 May 14:57:44 15:01:51 24° 264° (W) 15:06:00 436.500 FM
AO-7 25 May 15:03:44 15:08:30 17° 55° (NE) 15:13:16 29.400 - 29.500 MHz
Saudisat 1A 25 May 15:09:16 15:12:58 25° 249° (WSW) 15:16:36 436.775 MHz
PCSat 25 May 16:04:35 16:09:56 58° 62° (ENE) 16:15:15 145.825 MHz
TMSAT-1 25 May 16:07:10 16:12:27 74° 258° (WSW) 16:17:45 436.925 FM
Uosat F 25 May 16:08:58 16:13:29 34° 262° (W) 16:18:01 435.120 FM
AO-Echo 25 May 16:17:18 16:18:33 11° 268° (W) 16:19:47 ?
Gurwin Techsat 1B 25 May 16:31:52 16:36:19 27° 264° (W) 16:40:48 435.225 FM
Sapphire 25 May 16:37:40 16:43:06 74° 246° (WSW) 16:48:29 437.095 MHz 1200 baud AX-25 AFSK
AO-7 25 May 16:51:49 17:00:07 87° 72° (ENE) 17:08:28 29.400 - 29.500 MHz
RS-15 25 May 16:52:11 17:03:59 57° 304° (NW) 17:15:22 29.354 - 29.394 USB, Beacon 29.352 USB
SO-50 25 May 17:14:24 17:18:57 83° 61° (ENE) 17:23:24 436.795 FM
PCSat 25 May 17:49:50 17:52:48 15° 256° (WSW) 17:55:46 145.825 MHz
STRAND 1 25 May 17:53:47 17:56:12 13° 93° (E) 17:58:37 ?
JAS-1B 25 May 18:31:54 18:39:26 31° 67° (ENE) 18:46:03 435.800 - 435.900 CW/SSB
AO-7 25 May 18:49:18 18:53:41 15° 267° (W) 18:58:06 29.400 - 29.500 MHz
Hamsat 25 May 18:55:32 18:59:41 65° 76° (ENE) 19:03:54 145.90 MHz
RS-15 25 May 19:12:42 19:19:39 17° 331° (NNW) 19:26:27 29.354 - 29.394 USB, Beacon 29.352 USB
SO-67 25 May 19:14:48 19:17:53 28° 73° (ENE) 19:21:00 435.3500 MHz FM
STRAND 1 25 May 19:30:39 19:35:42 58° 286° (WNW) 19:40:44 ?
UOSAT-12 25 May 19:56:55 20:01:32 77° 61° (ENE) 20:06:08 437.025 FM, 437.400 FM
JAS-1B 25 May 20:20:31 20:29:37 55° 259° (WSW) 20:37:28 435.800 - 435.900 CW/SSB
SO-67 25 May 20:49:51 20:51:23 12° 267° (W) 20:52:55 435.3500 MHz FM
Oscar 11 25 May 21:02:47 21:06:05 22° 70° (ENE) 21:09:24 145.825 FM, Beacon 2401.500 USB
HO-68 25 May 21:04:40 21:11:40 62° 71° (ENE) 21:18:41 435.675 MHz FM
JAS-2 25 May 21:11:49 21:19:14 52° 71° (ENE) 21:26:45 435.800 - 435.900 CW/SSB, 435.910 FM
RS-15 25 May 21:36:39 21:39:26 11° 11° (N) 21:42:13 29.354 - 29.394 USB, Beacon 29.352 USB
OPAL 25 May 21:44:58 21:49:43 37° 69° (ENE) 21:54:25 ?
KITSAT 1 25 May 21:50:17 21:58:08 60° 112° (ESE) 22:06:02 435.175 FM
Oscar 11 25 May 22:38:34 22:42:09 26° 264° (W) 22:45:46 145.825 FM, Beacon 2401.500 USB
HO-68 25 May 22:54:43 22:59:43 20° 265° (W) 23:04:45 435.675 MHz FM
JAS-2 25 May 22:57:50 23:04:20 30° 266° (W) 23:10:59 435.800 - 435.900 CW/SSB, 435.910 FM
OPAL 25 May 23:24:39 23:28:37 22° 262° (W) 23:32:35 ?
KITSAT 1 25 May 23:47:10 23:53:56 29° 310° (NW) 00:00:46 435.175 FM
RS-15 25 May 23:47:35 23:57:11 32° 45° (NE) 00:06:32 29.354 - 29.394 USB, Beacon 29.352 USB
ISS 25 May 23:51:59 23:53:39 13° 127° (SE) 23:55:18 145.800 FM
MaSat-1 26 May 00:17:12 00:23:54 42° 108° (ESE) 00:29:38 437.345 MHz
AO-40 26 May 00:57:35 02:34:05 45° 225° (SW) 07:42:55 Beacon 2401.320
ISS 26 May 01:26:53 01:30:02 43° 320° (NW) 01:33:13 145.800 FM
Oscar 19 26 May 01:31:40 01:35:02 17° 94° (E) 01:38:22 437.125 CW, 437.150 USB
Uribyol 2 26 May 01:35:33 01:38:48 17° 94° (E) 01:42:02 436.500 FM
RS-15 26 May 01:59:28 02:10:21 69° 247° (WSW) 02:21:06 29.354 - 29.394 USB, Beacon 29.352 USB
MaSat-1 26 May 01:59:58 02:06:01 31° 297° (WNW) 02:11:11 437.345 MHz
Oscar 16 26 May 02:10:19 02:15:22 54° 100° (E) 02:20:23 437.025 USB, Beacon 2401.1428
AO-27 26 May 02:27:24 02:32:33 57° 101° (E) 02:37:40 436.795 MHz FM
ITAMSAT 1 26 May 02:33:07 02:38:19 63° 101° (ESE) 02:43:29 435.822 SSB
AO-Echo 26 May 02:46:10 02:50:12 26° 97° (E) 02:54:18 ?
Oscar 19 26 May 03:09:40 03:14:33 44° 288° (WNW) 03:19:24 437.125 CW, 437.150 USB
Gurwin Techsat 1B 26 May 03:12:55 03:16:14 17° 93° (E) 03:19:32 435.225 FM
Uribyol 2 26 May 03:13:28 03:18:30 48° 287° (WNW) 03:23:30 436.500 FM
Saudisat 1A 26 May 03:34:04 03:37:07 18° 109° (ESE) 03:40:13 436.775 MHz
Oscar 16 26 May 03:51:17 03:54:14 16° 295° (WNW) 03:57:11 437.025 USB, Beacon 2401.1428
AO-27 26 May 04:08:38 04:11:33 15° 295° (WNW) 04:14:28 436.795 MHz FM
ITAMSAT 1 26 May 04:14:43 04:17:14 14° 296° (WNW) 04:19:45 435.822 SSB
Uosat F 26 May 04:20:08 04:25:11 81° 284° (WNW) 04:30:13 435.120 FM
AO-Echo 26 May 04:24:54 04:28:54 27° 290° (WNW) 04:32:58 ?
TMSAT-1 26 May 04:27:09 04:32:25 63° 101° (E) 04:37:39 436.925 FM
Gurwin Techsat 1B 26 May 04:51:19 04:56:25 49° 287° (WNW) 05:01:31 435.225 FM
AO-7 26 May 04:58:18 05:05:57 38° 100° (E) 05:13:32 29.400 - 29.500 MHz
PCSat 26 May 05:02:46 05:04:56 12° 103° (ESE) 05:07:06 145.825 MHz
STRAND 1 26 May 05:06:38 05:09:10 14° 64° (ENE) 05:11:41 ?
Saudisat 1A 26 May 05:12:14 05:16:29 39° 304° (WNW) 05:20:49 436.775 MHz
Sapphire 26 May 05:33:28 05:37:48 25° 107° (ESE) 05:42:09 437.095 MHz 1200 baud AX-25 AFSK
KITSAT 1 26 May 05:49:25 05:54:10 16° 41° (NE) 05:58:53 435.175 FM
TMSAT-1 26 May 06:09:06 06:11:46 14° 296° (WNW) 06:14:26 436.925 FM
PCSat 26 May 06:42:19 06:47:41 68° 297° (WNW) 06:53:06 145.825 MHz
STRAND 1 26 May 06:42:48 06:47:48 59° 259° (W) 06:52:51 ?
Hamsat 26 May 06:47:08 06:49:56 17° 94° (E) 06:52:45 145.90 MHz
AO-7 26 May 06:50:58 06:58:38 42° 295° (WNW) 07:06:18 29.400 - 29.500 MHz
Sapphire 26 May 07:16:04 07:21:00 36° 302° (WNW) 07:25:58 437.095 MHz 1200 baud AX-25 AFSK
SO-50 26 May 07:25:40 07:30:27 72° 117° (ESE) 07:35:12 436.795 FM
KITSAT 1 26 May 07:42:49 07:50:58 75° 62° (ENE) 07:59:04 435.175 FM
ISS 26 May 07:58:41 08:01:45 32° 38° (NE) 08:04:49 145.800 FM

Developed and maintained by Chris Peat, Heavens-Above GmbH. Please read the updated FAQ before sending e-mail. Imprint. DLR
